Time,TemperatureF,DewpointF,PressureIn,WindDirection,WindDirectionDegrees,WindSpeedMPH,WindSpeedGustMPH,Humidity,HourlyPrecipIn,Conditions,Clouds,dailyrainin,SoftwareType,DateUTC
2013-02-14 00:02:00,30.0,28.0,29.94,NW,304,0.0,-999.0,92,-99.99,,,-99.99,,2013-02-14 05:02:00,
2013-02-14 00:11:00,30.0,28.0,29.94,NW,304,0.0,-999.0,92,-99.99,,,-99.99,,2013-02-14 05:11:00,
2013-02-14 00:22:00,30.0,28.0,29.94,NW,304,0.0,-999.0,92,-99.99,,,-99.99,,2013-02-14 05:22:00,
2013-02-14 00:32:00,30.0,28.0,29.94,NW,304,0.0,-999.0,92,-99.99,,,-99.99,,2013-02-14 05:32:00,
2013-02-14 00:42:00,30.0,28.0,29.94,NW,304,0.0,-999.0,92,-99.99,,,-99.99,,2013-02-14 05:42:00,
2013-02-14 00:52:00,30.0,28.0,29.94,NW,304,0.0,-999.0,92,-99.99,,,-99.99,,2013-02-14 05:52:00,
2013-02-14 01:02:00,32.0,30.0,29.95,WNW,292,0.0,-999.0,94,-99.99,,,-99.99,,2013-02-14 06:02:00,
2013-02-14 01:11:00,32.0,30.0,29.95,WNW,292,0.0,-999.0,93,-99.99,,,-99.99,,2013-02-14 06:11:00,
2013-02-14 01:21:00,32.0,30.0,29.95,WNW,292,0.0,-999.0,93,-99.99,,,-99.99,,2013-02-14 06:21:00,
2013-02-14 01:32:00,33.0,31.0,29.95,West,273,0.0,-999.0,93,-99.99,,,-99.99,,2013-02-14 06:32:00,
2013-02-14 01:42:00,33.0,31.0,29.95,West,273,0.0,-999.0,93,-99.99,,,-99.99,,2013-02-14 06:42:00,
2013-02-14 01:51:00,33.0,31.0,29.95,West,273,0.0,-999.0,92,-99.99,,,-99.99,,2013-02-14 06:51:00,
2013-02-14 02:01:00,33.0,31.0,29.95,West,273,0.0,-999.0,92,-99.99,,,-99.99,,2013-02-14 07:01:00,
2013-02-14 02:11:00,33.0,31.0,29.95,West,273,0.0,-999.0,91,-99.99,,,-99.99,,2013-02-14 07:11:00,
2013-02-14 02:21:00,33.0,31.0,29.95,West,273,0.0,-999.0,91,-99.99,,,-99.99,,2013-02-14 07:21:00,
2013-02-14 02:32:00,32.0,29.0,29.95,West,273,0.0,-999.0,90,-99.99,,,-99.99,,2013-02-14 07:32:00,
2013-02-14 02:42:00,32.0,29.0,29.95,West,273,0.0,-999.0,90,-99.99,,,-99.99,,2013-02-14 07:42:00,
2013-02-14 02:52:00,31.0,28.0,29.95,West,273,0.0,-999.0,90,-99.99,,,-99.99,,2013-02-14 07:52:00,
2013-02-14 03:01:00,30.0,27.0,29.95,West,273,0.0,-999.0,90,-99.99,,,-99.99,,2013-02-14 08:01:00,
2013-02-14 03:11:00,30.0,27.0,29.95,West,273,0.0,-999.0,90,-99.99,,,-99.99,,2013-02-14 08:11:00,
2013-02-14 03:22:00,29.0,27.0,29.95,West,273,0.0,-999.0,91,-99.99,,,-99.99,,2013-02-14 08:22:00,
2013-02-14 03:32:00,28.0,26.0,29.95,West,273,0.0,-999.0,91,-99.99,,,-99.99,,2013-02-14 08:32:00,
2013-02-14 03:43:00,28.0,26.0,29.95,West,273,0.0,-999.0,91,-99.99,,,-99.99,,2013-02-14 08:43:00,
2013-02-14 03:52:00,28.0,26.0,29.95,West,273,0.0,-999.0,91,-99.99,,,-99.99,,2013-02-14 08:52:00,
2013-02-14 04:02:00,27.0,25.0,29.95,West,273,0.0,-999.0,91,-99.99,,,-99.99,,2013-02-14 09:02:00,
2013-02-14 04:11:00,27.0,25.0,29.96,West,273,0.0,-999.0,91,-99.99,,,-99.99,,2013-02-14 09:11:00,
2013-02-14 04:21:00,27.0,25.0,29.96,West,273,0.0,-999.0,91,-99.99,,,-99.99,,2013-02-14 09:21:00,
2013-02-14 04:32:00,27.0,25.0,29.96,West,273,0.0,-999.0,92,-99.99,,,-99.99,,2013-02-14 09:32:00,
2013-02-14 04:42:00,27.0,25.0,29.96,West,273,0.0,-999.0,92,-99.99,,,-99.99,,2013-02-14 09:42:00,
2013-02-14 04:51:00,27.0,25.0,29.96,West,273,0.0,-999.0,92,-99.99,,,-99.99,,2013-02-14 09:51:00,
2013-02-14 05:02:00,27.0,25.0,29.96,West,273,0.0,-999.0,92,-99.99,,,-99.99,,2013-02-14 10:02:00,
2013-02-14 05:11:00,28.0,26.0,29.96,West,273,0.0,-999.0,92,-99.99,,,-99.99,,2013-02-14 10:11:00,
2013-02-14 05:21:00,28.0,26.0,29.96,West,273,0.0,-999.0,92,-99.99,,,-99.99,,2013-02-14 10:21:00,
2013-02-14 05:32:00,28.0,26.0,29.96,West,273,0.0,-999.0,92,-99.99,,,-99.99,,2013-02-14 10:32:00,
2013-02-14 05:42:00,28.0,26.0,29.96,West,273,0.0,-999.0,92,-99.99,,,-99.99,,2013-02-14 10:42:00,
2013-02-14 05:52:00,28.0,26.0,29.96,West,273,0.0,-999.0,92,-99.99,,,-99.99,,2013-02-14 10:52:00,
2013-02-14 06:02:00,28.0,26.0,29.95,West,273,0.0,-999.0,93,-99.99,,,-99.99,,2013-02-14 11:02:00,
2013-02-14 06:11:00,28.0,26.0,29.95,West,273,0.0,-999.0,93,-99.99,,,-99.99,,2013-02-14 11:11:00,
2013-02-14 06:21:00,28.0,26.0,29.95,West,273,0.0,-999.0,93,-99.99,,,-99.99,,2013-02-14 11:21:00,
2013-02-14 06:32:00,28.0,26.0,29.96,West,273,0.0,-999.0,93,-99.99,,,-99.99,,2013-02-14 11:32:00,
2013-02-14 06:42:00,28.0,26.0,29.96,West,273,0.0,-999.0,93,-99.99,,,-99.99,,2013-02-14 11:42:00,
2013-02-14 06:52:00,28.0,26.0,29.96,West,273,0.0,-999.0,92,-99.99,,,-99.99,,2013-02-14 11:52:00,
2013-02-14 07:02:00,29.0,27.0,29.96,West,273,0.0,-999.0,93,-99.99,,,-99.99,,2013-02-14 12:02:00,
2013-02-14 07:12:00,29.0,27.0,29.96,West,273,0.0,-999.0,93,-99.99,,,-99.99,,2013-02-14 12:12:00,
2013-02-14 07:22:00,29.0,27.0,29.96,West,273,0.0,-999.0,93,-99.99,,,-99.99,,2013-02-14 12:22:00,
2013-02-14 07:32:00,30.0,28.0,29.96,West,273,0.0,-999.0,93,-99.99,,,-99.99,,2013-02-14 12:32:00,
2013-02-14 07:42:00,30.0,28.0,29.96,West,273,0.0,-999.0,93,-99.99,,,-99.99,,2013-02-14 12:42:00,
2013-02-14 07:53:00,30.0,28.0,29.95,West,273,0.0,-999.0,93,-99.99,,,-99.99,,2013-02-14 12:53:00,
2013-02-14 08:02:00,30.0,28.0,29.95,West,273,0.0,-999.0,93,-99.99,,,-99.99,,2013-02-14 13:02:00,
2013-02-14 08:11:00,30.0,28.0,29.95,West,273,0.0,-999.0,93,-99.99,,,-99.99,,2013-02-14 13:11:00,
2013-02-14 08:21:00,29.0,27.0,29.95,West,273,0.0,-999.0,92,-99.99,,,-99.99,,2013-02-14 13:21:00,
2013-02-14 08:32:00,29.0,27.0,29.95,West,273,0.0,-999.0,93,-99.99,,,-99.99,,2013-02-14 13:32:00,
2013-02-14 08:42:00,29.0,27.0,29.95,West,273,0.0,-999.0,93,-99.99,,,-99.99,,2013-02-14 13:42:00,
2013-02-14 08:51:00,31.0,29.0,29.95,West,273,0.0,-999.0,94,-99.99,,,-99.99,,2013-02-14 13:51:00,
2013-02-14 09:01:00,32.0,30.0,29.96,West,273,0.0,-999.0,94,-99.99,,,-99.99,,2013-02-14 14:01:00,
2013-02-14 09:11:00,34.0,32.0,29.96,West,273,1.0,-999.0,94,-99.99,,,-99.99,,2013-02-14 14:11:00,
2013-02-14 09:21:00,34.0,32.0,29.96,West,273,1.0,-999.0,94,-99.99,,,-99.99,,2013-02-14 14:21:00,
2013-02-14 09:32:00,37.0,35.0,29.96,SSW,211,2.0,-999.0,94,-99.99,,,-99.99,,2013-02-14 14:32:00,
2013-02-14 09:42:00,37.0,35.0,29.96,SSW,211,2.0,-999.0,94,-99.99,,,-99.99,,2013-02-14 14:42:00,
2013-02-14 09:52:00,39.0,36.0,29.97,SSW,194,3.0,-999.0,89,-99.99,,,-99.99,,2013-02-14 14:52:00,
2013-02-14 10:02:00,40.0,36.0,29.97,SW,236,4.0,-999.0,86,-99.99,,,-99.99,,2013-02-14 15:02:00,
2013-02-14 10:11:00,40.0,36.0,29.97,SW,236,4.0,-999.0,86,-99.99,,,-99.99,,2013-02-14 15:11:00,
2013-02-14 10:21:00,40.0,35.0,29.98,SW,235,5.0,-999.0,83,-99.99,,,-99.99,,2013-02-14 15:21:00,
2013-02-14 10:32:00,41.0,36.0,29.97,WSW,242,4.0,-999.0,82,-99.99,,,-99.99,,2013-02-14 15:32:00,
2013-02-14 10:42:00,41.0,36.0,29.97,WSW,242,4.0,-999.0,82,-99.99,,,-99.99,,2013-02-14 15:42:00,
2013-02-14 10:52:00,41.0,35.0,29.98,SW,219,6.0,-999.0,80,-99.99,,,-99.99,,2013-02-14 15:52:00,
2013-02-14 11:02:00,42.0,36.0,29.98,WSW,254,8.0,-999.0,80,-99.99,,,-99.99,,2013-02-14 16:02:00,
2013-02-14 11:11:00,42.0,36.0,29.98,WSW,245,8.0,-999.0,79,-99.99,,,-99.99,,2013-02-14 16:11:00,
2013-02-14 11:21:00,42.0,36.0,29.98,WSW,245,8.0,-999.0,79,-99.99,,,-99.99,,2013-02-14 16:21:00,
2013-02-14 11:32:00,43.0,37.0,29.98,SSW,198,8.0,-999.0,78,-99.99,,,-99.99,,2013-02-14 16:32:00,
2013-02-14 11:42:00,43.0,37.0,29.98,SSW,198,8.0,-999.0,78,-99.99,,,-99.99,,2013-02-14 16:42:00,
2013-02-14 11:51:00,44.0,37.0,29.96,WSW,245,5.0,-999.0,77,-99.99,,,-99.99,,2013-02-14 16:51:00,
2013-02-14 12:01:00,45.0,38.0,29.96,WSW,255,6.0,-999.0,76,-99.99,,,-99.99,,2013-02-14 17:01:00,
2013-02-14 12:11:00,46.0,37.0,29.96,SSW,198,5.0,-999.0,72,-99.99,,,-99.99,,2013-02-14 17:11:00,
2013-02-14 12:21:00,46.0,37.0,29.96,SSW,198,5.0,-999.0,72,-99.99,,,-99.99,,2013-02-14 17:21:00,
2013-02-14 12:32:00,47.0,38.0,29.95,SSW,199,7.0,-999.0,70,-99.99,,,-99.99,,2013-02-14 17:32:00,
2013-02-14 12:42:00,47.0,38.0,29.95,SSW,199,7.0,-999.0,70,-99.99,,,-99.99,,2013-02-14 17:42:00,
2013-02-14 12:52:00,48.0,38.0,29.94,SSW,196,6.0,-999.0,67,-99.99,,,-99.99,,2013-02-14 17:52:00,
2013-02-14 13:01:00,49.0,38.0,29.93,SW,225,6.0,-999.0,66,-99.99,,,-99.99,,2013-02-14 18:01:00,
2013-02-14 13:11:00,49.0,38.0,29.93,SW,225,6.0,-999.0,66,-99.99,,,-99.99,,2013-02-14 18:11:00,
2013-02-14 13:23:00,49.0,38.0,29.93,SW,225,6.0,-999.0,66,-99.99,,,-99.99,,2013-02-14 18:23:00,
2013-02-14 13:32:00,51.0,37.0,29.92,SW,235,9.0,-999.0,59,-99.99,,,-99.99,,2013-02-14 18:32:00,
2013-02-14 13:42:00,51.0,37.0,29.92,SW,235,9.0,-999.0,59,-99.99,,,-99.99,,2013-02-14 18:42:00,
2013-02-14 13:52:00,51.0,37.0,29.92,West,260,8.0,-999.0,59,-99.99,,,-99.99,,2013-02-14 18:52:00,
2013-02-14 14:02:00,52.0,38.0,29.91,WSW,240,8.0,-999.0,59,-99.99,,,-99.99,,2013-02-14 19:02:00,
2013-02-14 14:11:00,52.0,38.0,29.91,WSW,240,8.0,-999.0,59,-99.99,,,-99.99,,2013-02-14 19:11:00,
2013-02-14 14:22:00,52.0,36.0,29.90,SSW,209,8.0,-999.0,55,-99.99,,,-99.99,,2013-02-14 19:22:00,
2013-02-14 14:32:00,53.0,37.0,29.90,WSW,252,8.0,-999.0,55,-99.99,,,-99.99,,2013-02-14 19:32:00,
2013-02-14 14:42:00,53.0,37.0,29.90,WSW,252,8.0,-999.0,55,-99.99,,,-99.99,,2013-02-14 19:42:00,
2013-02-14 14:52:00,54.0,37.0,29.89,SW,220,9.0,-999.0,53,-99.99,,,-99.99,,2013-02-14 19:52:00,
2013-02-14 15:01:00,54.0,36.0,29.89,WSW,244,8.0,-999.0,51,-99.99,,,-99.99,,2013-02-14 20:01:00,
2013-02-14 15:11:00,54.0,36.0,29.89,SSW,212,10.0,-999.0,50,-99.99,,,-99.99,,2013-02-14 20:11:00,
2013-02-14 15:21:00,54.0,36.0,29.89,SSW,212,10.0,-999.0,50,-99.99,,,-99.99,,2013-02-14 20:21:00,
2013-02-14 15:32:00,55.0,36.0,29.88,SSW,200,8.0,-999.0,49,-99.99,,,-99.99,,2013-02-14 20:32:00,
2013-02-14 15:42:00,55.0,36.0,29.88,SSW,200,8.0,-999.0,49,-99.99,,,-99.99,,2013-02-14 20:42:00,
2013-02-14 15:52:00,55.0,35.0,29.88,West,264,10.0,-999.0,47,-99.99,,,-99.99,,2013-02-14 20:52:00,
2013-02-14 16:02:00,56.0,36.0,29.88,SSW,210,5.0,-999.0,46,-99.99,,,-99.99,,2013-02-14 21:02:00,
2013-02-14 16:11:00,56.0,36.0,29.88,SSW,210,5.0,-999.0,46,-99.99,,,-99.99,,2013-02-14 21:11:00,
2013-02-14 16:21:00,56.0,36.0,29.88,West,264,8.0,-999.0,47,-99.99,,,-99.99,,2013-02-14 21:21:00,
2013-02-14 16:32:00,56.0,36.0,29.89,WSW,243,7.0,-999.0,46,-99.99,,,-99.99,,2013-02-14 21:32:00,
2013-02-14 16:42:00,56.0,36.0,29.89,WSW,243,7.0,-999.0,46,-99.99,,,-99.99,,2013-02-14 21:42:00,
2013-02-14 16:51:00,56.0,35.0,29.89,WSW,258,7.0,-999.0,45,-99.99,,,-99.99,,2013-02-14 21:51:00,
2013-02-14 17:02:00,56.0,34.0,29.89,WSW,242,10.0,-999.0,43,-99.99,,,-99.99,,2013-02-14 22:02:00,
2013-02-14 17:11:00,56.0,33.0,29.89,West,261,10.0,-999.0,42,-99.99,,,-99.99,,2013-02-14 22:11:00,
2013-02-14 17:21:00,56.0,33.0,29.89,West,261,10.0,-999.0,42,-99.99,,,-99.99,,2013-02-14 22:21:00,
2013-02-14 17:32:00,55.0,33.0,29.90,WSW,246,8.0,-999.0,44,-99.99,,,-99.99,,2013-02-14 22:32:00,
2013-02-14 17:42:00,55.0,33.0,29.90,WSW,246,8.0,-999.0,44,-99.99,,,-99.99,,2013-02-14 22:42:00,
2013-02-14 17:51:00,56.0,35.0,29.90,WNW,288,7.0,-999.0,45,-99.99,,,-99.99,,2013-02-14 22:51:00,
2013-02-14 18:01:00,55.0,34.0,29.91,WSW,254,6.0,-999.0,45,-99.99,,,-99.99,,2013-02-14 23:01:00,
2013-02-14 18:11:00,55.0,34.0,29.91,WSW,254,6.0,-999.0,45,-99.99,,,-99.99,,2013-02-14 23:11:00,
2013-02-14 18:21:00,55.0,35.0,29.91,West,262,7.0,-999.0,46,-99.99,,,-99.99,,2013-02-14 23:21:00,
2013-02-14 18:32:00,53.0,34.0,29.91,West,265,4.0,-999.0,48,-99.99,,,-99.99,,2013-02-14 23:32:00,
2013-02-14 18:42:00,53.0,34.0,29.91,West,265,4.0,-999.0,48,-99.99,,,-99.99,,2013-02-14 23:42:00,
2013-02-14 18:52:00,52.0,34.0,29.92,WSW,250,1.0,-999.0,50,-99.99,,,-99.99,,2013-02-14 23:52:00,
2013-02-14 19:02:00,52.0,35.0,29.93,WSW,250,0.0,-999.0,52,-99.99,,,-99.99,,2013-02-15 00:02:00,
2013-02-14 19:11:00,52.0,35.0,29.93,WSW,250,0.0,-999.0,52,-99.99,,,-99.99,,2013-02-15 00:11:00,
2013-02-14 19:22:00,50.0,34.0,29.93,WSW,250,1.0,-999.0,55,-99.99,,,-99.99,,2013-02-15 00:22:00,
2013-02-14 19:32:00,50.0,34.0,29.93,WSW,250,1.0,-999.0,55,-99.99,,,-99.99,,2013-02-15 00:32:00,
2013-02-14 19:42:00,50.0,34.0,29.93,WSW,250,1.0,-999.0,55,-99.99,,,-99.99,,2013-02-15 00:42:00,
2013-02-14 19:51:00,50.0,35.0,29.93,WSW,250,0.0,-999.0,56,-99.99,,,-99.99,,2013-02-15 00:51:00,
2013-02-14 20:02:00,49.0,35.0,29.94,WSW,250,0.0,-999.0,58,-99.99,,,-99.99,,2013-02-15 01:02:00,
2013-02-14 20:11:00,49.0,35.0,29.94,WSW,250,0.0,-999.0,58,-99.99,,,-99.99,,2013-02-15 01:11:00,
2013-02-14 20:21:00,47.0,35.0,29.94,WSW,250,0.0,-999.0,62,-99.99,,,-99.99,,2013-02-15 01:21:00,
2013-02-14 20:32:00,47.0,35.0,29.94,WSW,250,0.0,-999.0,62,-99.99,,,-99.99,,2013-02-15 01:32:00,
2013-02-14 20:42:00,47.0,35.0,29.94,WSW,250,0.0,-999.0,62,-99.99,,,-99.99,,2013-02-15 01:42:00,
2013-02-14 20:51:00,47.0,35.0,29.94,WSW,250,0.0,-999.0,62,-99.99,,,-99.99,,2013-02-15 01:51:00,
2013-02-14 21:01:00,44.0,34.0,29.94,WSW,250,0.0,-999.0,68,-99.99,,,-99.99,,2013-02-15 02:01:00,
2013-02-14 21:11:00,44.0,34.0,29.94,WSW,250,0.0,-999.0,68,-99.99,,,-99.99,,2013-02-15 02:11:00,
2013-02-14 21:21:00,43.0,34.0,29.94,WSW,250,0.0,-999.0,70,-99.99,,,-99.99,,2013-02-15 02:21:00,
2013-02-14 21:32:00,43.0,34.0,29.94,WSW,250,0.0,-999.0,71,-99.99,,,-99.99,,2013-02-15 02:32:00,
2013-02-14 21:41:00,43.0,34.0,29.94,WSW,250,0.0,-999.0,71,-99.99,,,-99.99,,2013-02-15 02:41:00,
2013-02-14 21:52:00,43.0,34.0,29.95,WSW,250,0.0,-999.0,71,-99.99,,,-99.99,,2013-02-15 02:52:00,
2013-02-14 22:02:00,42.0,34.0,29.95,WSW,250,0.0,-999.0,73,-99.99,,,-99.99,,2013-02-15 03:02:00,
2013-02-14 22:11:00,42.0,34.0,29.95,WSW,250,0.0,-999.0,73,-99.99,,,-99.99,,2013-02-15 03:11:00,
2013-02-14 22:22:00,41.0,33.0,29.95,WSW,250,0.0,-999.0,74,-99.99,,,-99.99,,2013-02-15 03:22:00,
2013-02-14 22:32:00,40.0,33.0,29.96,WSW,250,0.0,-999.0,76,-99.99,,,-99.99,,2013-02-15 03:32:00,
2013-02-14 22:42:00,40.0,33.0,29.96,WSW,250,0.0,-999.0,76,-99.99,,,-99.99,,2013-02-15 03:42:00,
2013-02-14 22:51:00,40.0,33.0,29.96,WSW,250,0.0,-999.0,76,-99.99,,,-99.99,,2013-02-15 03:51:00,
2013-02-14 23:02:00,40.0,33.0,29.96,WSW,250,0.0,-999.0,75,-99.99,,,-99.99,,2013-02-15 04:02:00,
2013-02-14 23:11:00,40.0,33.0,29.96,WSW,250,0.0,-999.0,75,-99.99,,,-99.99,,2013-02-15 04:11:00,
2013-02-14 23:21:00,39.0,32.0,29.96,WSW,250,0.0,-999.0,77,-99.99,,,-99.99,,2013-02-15 04:21:00,
2013-02-14 23:32:00,38.0,32.0,29.96,WSW,250,0.0,-999.0,79,-99.99,,,-99.99,,2013-02-15 04:32:00,
2013-02-14 23:42:00,38.0,32.0,29.96,WSW,250,0.0,-999.0,79,-99.99,,,-99.99,,2013-02-15 04:42:00,
2013-02-14 23:52:00,38.0,32.0,29.96,WSW,250,0.0,-999.0,80,-99.99,,,-99.99,,2013-02-15 04:52:00,